Zurück zum Katalog

STARLINK-33855

AktivKommunikationVLEO
NORAD 64335·PAYLOAD·🇺🇸 United States

Gestartet Jun 10, 2025 von Cape Canaveral Space Force Station

Loading…

Nächste Überflüge (nächste 24 Stunden)

TLE

AktuellSource: CelesTrak SupGP

Epoche: Sep 15, 2026, 03:21 UTC

1 64335C 25124U   26258.14006944  .00064254  00000+0  23275-2 0  2585
2 64335  43.0008 131.6251 0001717 269.2180 186.0179 15.27542396    18

Verfolge STARLINK-33855 in Echtzeit mit AllMySat

Download on the App Store